Starlink 1597

operational
NORAD ID: 46142 Int'l Des: 2020-057 Owner: SPXS Country: US Constellation: starlink
LEOCIRCULARSTARLINK_TYPE

Über Starlink 1597

Beschreibung wird geladen...

Live-Position

3D-Globus wird geladen...

Nächste Überflüge

Höhenverlauf

Altitude vs Time

uPlot chart will show altitude changes over time

Zweizeiliger Elementsatz

1 46142U 20057AB 25307.98401545 .00002174 00000-0 16478-3 0 9997
2 46142 53.0535 160.9323 0001288 95.9995 264.1141 15.06397103287112
Epoch: 3. Nov. 2025 • Age: 21 hours

Aktueller Status

Höhe 551.4 km
Geschwindigkeit 7.59 km/s
Subsatellitenpunkt 46.60°N, 72.03°W
Startdatum 18. Aug. 2020
Alter 5.2 years
Typ internet

Technische Details

Klassifizierung Payload
Masse 260.00 kg
Trockenmasse 248.00 kg
Gesamtmasse 260.00 kg
Länge 0.20 m
Durchmesser 2.80 m
Spannweite 9.00 m
Form Box + pan
Hersteller SPXS
Bus-Typ Starlink
Phasenstatus In Orbit
Besitzer/Staat SPXS/US

Große Konstellationen

Loading constellations...